,,PA_Meas_PMT16A,,PR_Meas_QMR101_102,,RH_Meas_QMH101,,SR_Meas_QMS101,,TA_Meas_QMH101,,GenWind,,GenWind,
time,status,PA,status,PR,status,RH,status,SR,status,TA,status,DirAvg,status,SpdAvg,
2012-10-16, 00:00:04,VALID,919.722,VALID,0,VALID,94.4313,VALID,0.107441,VALID,19.8213,VALID,2,VALID,0,
2012-10-16, 00:01:04,VALID,919.704,VALID,0,VALID,94.6828,VALID,0,VALID,19.8408,VALID,2,VALID,0,
2012-10-16, 00:02:04,VALID,919.689,VALID,0,VALID,94.8048,VALID,0,VALID,19.8798,VALID,2,VALID,0,
2012-10-16, 00:03:04,VALID,919.696,VALID,0,VALID,94.8734,VALID,0,VALID,19.8798,VALID,2,VALID,0,
2012-10-16, 00:04:04,VALID,919.705,VALID,0,VALID,94.9344,VALID,0,VALID,19.9203,VALID,2,VALID,0,
2012-10-16, 00:05:04,VALID,919.672,VALID,0,VALID,94.8124,VALID,0,VALID,19.9008,VALID,2,VALID,0,
2012-10-16, 00:06:04,VALID,919.654,VALID,0,VALID,94.7362,VALID,0,VALID,19.9008,VALID,2,VALID,0,
2012-10-16, 00:07:04,VALID,919.662,VALID,0,VALID,94.4694,VALID,0,VALID,19.8618,VALID,2,VALID,0,
2012-10-16, 00:08:04,VALID,919.627,VALID,0,VALID,94.4465,VALID,0,VALID,19.8228,VALID,2,VALID,0,
2012-10-16, 00:09:04,VALID,919.629,VALID,0,VALID,94.4846,VALID,0,VALID,19.7628,VALID,2,VALID,0,
2012-10-16, 00:10:04,VALID,919.647,VALID,0,VALID,94.4694,VALID,0,VALID,19.7448,VALID,2,VALID,0,
2012-10-16, 00:11:04,VALID,919.612,VALID,0,VALID,94.538,VALID,0,VALID,19.7253,VALID,2,VALID,0,
2012-10-16, 00:12:04,VALID,919.633,VALID,0,VALID,94.6142,VALID,0,VALID,19.7058,VALID,2,VALID,0,
2012-10-16, 00:13:04,VALID,919.571,VALID,0,VALID,94.7209,VALID,0,VALID,19.7058,VALID,2,VALID,0,
2012-10-16, 00:14:04,VALID,919.578,VALID,0,VALID,94.7743,VALID,0,VALID,19.6668,VALID,2,VALID,0,
2012-10-16, 00:15:04,VALID,919.562,VALID,0,VALID,94.8734,VALID,0,VALID,19.6668,VALID,2,VALID,0,
2012-10-16, 00:16:04,VALID,919.531,VALID,0,VALID,95.0106,VALID,0,VALID,19.6653,VALID,2,VALID,0,
2012-10-16, 00:17:04,VALID,919.524,VALID,0,VALID,94.8887,VALID,0,VALID,19.6668,VALID,2,VALID,0,
2012-10-16, 00:18:04,VALID,919.525,VALID,0,VALID,94.8353,VALID,0,VALID,19.6083,VALID,2,VALID,0,
2012-10-16, 00:19:04,VALID,919.505,VALID,0,VALID,94.8963,VALID,0,VALID,19.5888,VALID,2,VALID,0,
2012-10-16, 00:20:04,VALID,919.502,VALID,0,VALID,95.0259,VALID,0,VALID,19.5678,VALID,2,VALID,0,
2012-10-16, 00:21:04,VALID,919.455,VALID,0,VALID,95.186,VALID,0,VALID,19.5693,VALID,2,VALID,0,
2012-10-16, 00:22:04,VALID,919.453,VALID,0,VALID,95.3308,VALID,0,VALID,19.6278,VALID,2,VALID,0,
2012-10-16, 00:23:04,VALID,919.455,VALID,0,VALID,95.4223,VALID,0,VALID,19.6068,VALID,2,VALID,0,
2012-10-16, 00:24:04,VALID,919.452,VALID,0,VALID,95.5214,VALID,0,VALID,19.6473,VALID,2,VALID,0,
2012-10-16, 00:25:04,VALID,919.387,VALID,0,VALID,95.5976,VALID,0,VALID,19.6668,VALID,2,VALID,0,
2012-10-16, 00:26:04,VALID,919.423,VALID,0,VALID,95.5671,VALID,0,VALID,19.6863,VALID,2,VALID,0,
2012-10-16, 00:27:04,VALID,919.401,VALID,0,VALID,95.5443,VALID,0,VALID,19.6863,VALID,2,VALID,0,
2012-10-16, 00:28:04,VALID,919.402,VALID,0,VALID,95.4985,VALID,0,VALID,19.6668,VALID,2,VALID,0,
2012-10-16, 00:29:04,VALID,919.399,VALID,0,VALID,95.4909,VALID,0,VALID,19.6653,VALID,2,VALID,0,
2012-10-16, 00:30:04,VALID,919.368,VALID,0,VALID,95.4452,VALID,0,VALID,19.6653,VALID,2,VALID,0,
2012-10-16, 00:31:04,VALID,919.357,VALID,0,VALID,95.4909,VALID,0,VALID,19.6848,VALID,2,VALID,0,
2012-10-16, 00:32:04,VALID,919.373,VALID,0,VALID,95.4833,VALID,0,VALID,19.6653,VALID,2,VALID,0,
2012-10-16, 00:33:04,VALID,919.34,VALID,0,VALID,95.5138,VALID,0,VALID,19.6668,VALID,2,VALID,0,
2012-10-16, 00:34:04,VALID,919.344,VALID,0,VALID,95.5367,VALID,0,VALID,19.6458,VALID,2,VALID,0,
2012-10-16, 00:35:04,VALID,919.336,VALID,0,VALID,95.6434,VALID,0.107441,VALID,19.6263,VALID,2,VALID,0,
2012-10-16, 00:36:04,VALID,919.336,VALID,0,VALID,95.6815,VALID,0,VALID,19.6278,VALID,3,VALID,0,
2012-10-16, 00:37:04,VALID,919.335,VALID,0,VALID,95.6739,VALID,0,VALID,19.6083,VALID,3,VALID,0,
2012-10-16, 00:38:04,VALID,919.294,VALID,0,VALID,95.7349,VALID,0.107441,VALID,19.5678,VALID,2,VALID,0,
2012-10-16, 00:39:04,VALID,919.297,VALID,0,VALID,95.8187,VALID,0,VALID,19.5483,VALID,3,VALID,0,
2012-10-16, 00:40:04,VALID,919.287,VALID,0,VALID,95.9178,VALID,0,VALID,19.5498,VALID,3,VALID,0,
2012-10-16, 00:41:04,VALID,919.263,VALID,0,VALID,95.9483,VALID,0,VALID,19.5288,VALID,3,VALID,0,
2012-10-16, 00:42:04,VALID,919.257,VALID,0,VALID,95.9559,VALID,0,VALID,19.5093,VALID,3,VALID,0,
2012-10-16, 00:43:04,VALID,919.252,VALID,0,VALID,96.0169,VALID,0,VALID,19.5288,VALID,3,VALID,0,
2012-10-16, 00:44:04,VALID,919.24,VALID,0,VALID,96.0779,VALID,0,VALID,19.5093,VALID,3,VALID,0,
2012-10-16, 00:45:05,VALID,919.221,VALID,0,VALID,96.1389,VALID,0,VALID,19.5288,VALID,3,VALID,0,
2012-10-16, 00:46:05,VALID,919.247,VALID,0,VALID,96.1923,VALID,0,VALID,19.5093,VALID,14,VALID,0,
2012-10-16, 00:47:05,VALID,919.223,VALID,0,VALID,96.2075,VALID,0,VALID,19.5093,VALID,14,VALID,0,
2012-10-16, 00:48:05,VALID,919.183,VALID,0,VALID,96.2228,VALID,0,VALID,19.5093,VALID,14,VALID,0,
2012-10-16, 00:49:05,VALID,919.188,VALID,0,VALID,96.1846,VALID,0,VALID,19.5303,VALID,14,VALID,0,
2012-10-16, 00:50:05,VALID,919.188,VALID,0,VALID,96.1618,VALID,0,VALID,19.5303,VALID,14,VALID,0,
2012-10-16, 00:51:05,VALID,919.218,VALID,0,VALID,96.1618,VALID,0.107441,VALID,19.5483,VALID,15,VALID,0,
2012-10-16, 00:52:05,VALID,919.203,VALID,0,VALID,96.2228,VALID,0.107441,VALID,19.5873,VALID,14,VALID,0,
2012-10-16, 00:53:05,VALID,919.181,VALID,0,VALID,96.2228,VALID,0,VALID,19.5873,VALID,14,VALID,0,
2012-10-16, 00:54:05,VALID,919.212,VALID,0,VALID,96.2151,VALID,0,VALID,19.6068,VALID,15,VALID,0,
2012-10-16, 00:55:05,VALID,919.192,VALID,0,VALID,96.1999,VALID,0,VALID,19.6278,VALID,15,VALID,0,
2012-10-16, 00:56:05,VALID,919.165,VALID,0,VALID,96.2075,VALID,0.107441,VALID,19.6263,VALID,15,VALID,0,
2012-10-16, 00:57:05,VALID,919.152,VALID,0,VALID,96.1999,VALID,0,VALID,19.6068,VALID,15,VALID,0,
2012-10-16, 00:58:05,VALID,919.17,VALID,0,VALID,96.2151,VALID,0,VALID,19.6263,VALID,15,VALID,0,
2012-10-16, 00:59:05,VALID,919.196,VALID,0,VALID,96.2228,VALID,0,VALID,19.6263,VALID,15,VALID,0,
2012-10-16, 01:00:05,VALID,919.145,VALID,0,VALID,96.2151,VALID,0,VALID,19.6068,VALID,15,VALID,0,
2012-10-16, 01:01:05,VALID,919.183,VALID,0,VALID,96.177,VALID,0,VALID,19.6068,VALID,15,VALID,0,
2012-10-16, 01:02:05,VALID,919.154,VALID,0,VALID,96.1618,VALID,0,VALID,19.6068,VALID,15,VALID,0,
2012-10-16, 01:03:05,VALID,919.172,VALID,0,VALID,96.1389,VALID,0,VALID,19.6068,VALID,15,VALID,0,
2012-10-16, 01:04:05,VALID,919.214,VALID,0,VALID,96.116,VALID,0,VALID,19.5873,VALID,15,VALID,0,
2012-10-16, 01:05:05,VALID,919.178,VALID,0,VALID,96.1084,VALID,0,VALID,19.5873,VALID,107,VALID,0,
2012-10-16, 01:06:05,VALID,919.161,VALID,0,VALID,96.116,VALID,0.107441,VALID,19.5678,VALID,107,VALID,0,
2012-10-16, 01:07:05,VALID,919.186,VALID,0,VALID,96.1008,VALID,0,VALID,19.5873,VALID,107,VALID,0,
2012-10-16, 01:08:05,VALID,919.145,VALID,0,VALID,96.1389,VALID,0.107441,VALID,19.6278,VALID,107,VALID,0,
2012-10-16, 01:09:05,VALID,919.162,VALID,0,VALID,96.1084,VALID,0,VALID,19.6278,VALID,107,VALID,0,
2012-10-16, 01:10:05,VALID,919.179,VALID,0,VALID,96.1541,VALID,0,VALID,19.6068,VALID,107,VALID,0,
2012-10-16, 01:11:05,VALID,919.153,VALID,0,VALID,96.1465,VALID,0,VALID,19.6458,VALID,107,VALID,0,
2012-10-16, 01:12:05,VALID,919.141,VALID,0,VALID,96.116,VALID,0,VALID,19.6458,VALID,107,VALID,0,
2012-10-16, 01:13:05,VALID,919.129,VALID,0,VALID,96.1313,VALID,0,VALID,19.6863,VALID,107,VALID,0,
2012-10-16, 01:14:05,VALID,919.15,VALID,0,VALID,96.1389,VALID,0,VALID,19.6848,VALID,107,VALID,0,
2012-10-16, 01:15:05,VALID,919.156,VALID,0,VALID,96.1618,VALID,0,VALID,19.7043,VALID,107,VALID,0,
2012-10-16, 01:16:05,VALID,919.098,VALID,0,VALID,96.1999,VALID,0.107441,VALID,19.7448,VALID,107,VALID,0,
2012-10-16, 01:17:05,VALID,919.113,VALID,0,VALID,96.1694,VALID,0,VALID,19.7238,VALID,107,VALID,0,
2012-10-16, 01:18:05,VALID,919.118,VALID,0,VALID,96.1846,VALID,0,VALID,19.7433,VALID,107,VALID,0,
2012-10-16, 01:19:05,VALID,919.091,VALID,0,VALID,96.2075,VALID,0,VALID,19.7628,VALID,107,VALID,0,
2012-10-16, 01:20:05,VALID,919.074,VALID,0.2,VALID,96.238,VALID,0,VALID,19.7823,VALID,107,VALID,0,
2012-10-16, 01:21:05,VALID,919.049,VALID,0,VALID,96.1923,VALID,0,VALID,19.8033,VALID,107,VALID,0,
2012-10-16, 01:22:05,VALID,919.042,VALID,0,VALID,96.1846,VALID,0,VALID,19.7823,VALID,107,VALID,0,
2012-10-16, 01:23:05,VALID,919.029,VALID,0,VALID,96.2456,VALID,0,VALID,19.8018,VALID,107,VALID,0,
2012-10-16, 01:24:05,VALID,919.014,VALID,0,VALID,96.1923,VALID,0,VALID,19.8213,VALID,107,VALID,0,
2012-10-16, 01:25:05,VALID,918.997,VALID,0,VALID,96.1541,VALID,0,VALID,19.8213,VALID,107,VALID,0,
2012-10-16, 01:26:05,VALID,918.985,VALID,0,VALID,96.1694,VALID,0,VALID,19.8408,VALID,107,VALID,0,
2012-10-16, 01:27:05,VALID,918.945,VALID,0,VALID,96.1084,VALID,0,VALID,19.8618,VALID,107,VALID,0,
2012-10-16, 01:28:05,VALID,918.954,VALID,0,VALID,95.9712,VALID,0,VALID,19.8213,VALID,107,VALID,0,
2012-10-16, 01:29:05,VALID,918.942,VALID,0,VALID,95.9712,VALID,0,VALID,19.8408,VALID,107,VALID,0,
2012-10-16, 01:30:05,VALID,918.919,VALID,0,VALID,95.9636,VALID,0,VALID,19.8213,VALID,107,VALID,0,
2012-10-16, 01:31:05,VALID,918.925,VALID,0,VALID,95.9636,VALID,0,VALID,19.8603,VALID,107,VALID,0,
2012-10-16, 01:32:05,VALID,918.88,VALID,0,VALID,95.9254,VALID,0,VALID,19.8618,VALID,107,VALID,0,
2012-10-16, 01:33:05,VALID,918.845,VALID,0,VALID,95.9331,VALID,0,VALID,19.8813,VALID,107,VALID,0,
2012-10-16, 01:34:05,VALID,918.855,VALID,0,VALID,95.9636,VALID,0,VALID,19.9203,VALID,107,VALID,0,
2012-10-16, 01:35:05,VALID,918.825,VALID,0,VALID,96.0093,VALID,0,VALID,19.9203,VALID,107,VALID,0,
2012-10-16, 01:36:05,VALID,918.75,VALID,0,VALID,96.0017,VALID,0,VALID,19.9788,VALID,107,VALID,0,
2012-10-16, 01:37:05,VALID,918.715,VALID,0,VALID,96.0932,VALID,0,VALID,19.9984,VALID,107,VALID,0,
2012-10-16, 01:38:05,VALID,918.674,VALID,0,VALID,96.0322,VALID,0,VALID,20.0374,VALID,107,VALID,0,
2012-10-16, 01:39:05,VALID,918.605,VALID,0,VALID,95.9636,VALID,0,VALID,19.9968,VALID,107,VALID,0,
2012-10-16, 01:40:05,VALID,918.542,VALID,0,VALID,95.8721,VALID,0,VALID,19.9773,VALID,107,VALID,0,
2012-10-16, 01:41:05,VALID,918.534,VALID,0,VALID,95.7196,VALID,0,VALID,19.9788,VALID,107,VALID,0,
2012-10-16, 01:42:05,VALID,918.499,VALID,0,VALID,95.6586,VALID,0,VALID,19.9593,VALID,107,VALID,0,
2012-10-16, 01:43:05,VALID,918.515,VALID,0,VALID,95.6053,VALID,0,VALID,19.9008,VALID,107,VALID,0,
2012-10-16, 01:44:05,VALID,918.528,VALID,0,VALID,95.6357,VALID,0,VALID,19.9203,VALID,107,VALID,0,
2012-10-16, 01:45:05,VALID,918.513,VALID,0,VALID,95.6586,VALID,0,VALID,19.9008,VALID,107,VALID,0,
2012-10-16, 01:46:05,VALID,918.544,VALID,0,VALID,95.712,VALID,0,VALID,19.8798,VALID,107,VALID,0,
2012-10-16, 01:47:05,VALID,918.514,VALID,0,VALID,95.5519,VALID,0,VALID,19.8618,VALID,107,VALID,0,
2012-10-16, 01:48:05,VALID,918.516,VALID,0,VALID,95.5062,VALID,0,VALID,19.8423,VALID,107,VALID,0,
2012-10-16, 01:49:05,VALID,918.493,VALID,0,VALID,95.5519,VALID,0,VALID,19.8033,VALID,107,VALID,0,
2012-10-16, 01:50:05,VALID,918.467,VALID,0,VALID,95.6205,VALID,0,VALID,19.7838,VALID,107,VALID,0,
2012-10-16, 01:51:05,VALID,918.478,VALID,0,VALID,95.6815,VALID,0,VALID,19.8033,VALID,107,VALID,0,
2012-10-16, 01:52:05,VALID,918.457,VALID,0,VALID,95.8721,VALID,0,VALID,19.8423,VALID,107,VALID,0,
2012-10-16, 01:53:05,VALID,918.461,VALID,0,VALID,95.773,VALID,0,VALID,19.8018,VALID,107,VALID,0,
2012-10-16, 01:54:05,VALID,918.49,VALID,0,VALID,95.834,VALID,0,VALID,19.8018,VALID,107,VALID,0,
2012-10-16, 01:55:05,VALID,918.53,VALID,0,VALID,95.7501,VALID,0,VALID,19.8033,VALID,107,VALID,0,
2012-10-16, 01:56:05,VALID,918.533,VALID,0,VALID,95.773,VALID,0,VALID,19.7823,VALID,107,VALID,0,
2012-10-16, 01:57:05,VALID,918.554,VALID,0,VALID,95.7654,VALID,0,VALID,19.7628,VALID,107,VALID,0,
2012-10-16, 01:58:05,VALID,918.539,VALID,0,VALID,95.7577,VALID,0,VALID,19.7433,VALID,107,VALID,0,
2012-10-16, 01:59:05,VALID,918.502,VALID,0,VALID,95.6662,VALID,0,VALID,19.7433,VALID,107,VALID,0,
2012-10-16, 02:00:05,VALID,918.486,VALID,0,VALID,95.6815,VALID,0,VALID,19.7448,VALID,107,VALID,0,
2012-10-16, 02:01:05,VALID,918.471,VALID,0,VALID,95.6434,VALID,0,VALID,19.7433,VALID,107,VALID,0,
2012-10-16, 02:02:05,VALID,918.462,VALID,0,VALID,95.6662,VALID,0,VALID,19.7628,VALID,107,VALID,0,
2012-10-16, 02:03:05,VALID,918.46,VALID,0,VALID,95.5519,VALID,0,VALID,19.7628,VALID,107,VALID,0,
2012-10-16, 02:04:05,VALID,918.469,VALID,0,VALID,95.5748,VALID,0,VALID,19.8018,VALID,107,VALID,0,
2012-10-16, 02:05:05,VALID,918.483,VALID,0,VALID,95.5367,VALID,0,VALID,19.8228,VALID,107,VALID,0,
2012-10-16, 02:06:05,VALID,918.47,VALID,0,VALID,95.5214,VALID,0,VALID,19.8408,VALID,107,VALID,0,
2012-10-16, 02:07:05,VALID,918.449,VALID,0,VALID,95.4757,VALID,0,VALID,19.9008,VALID,107,VALID,0,
2012-10-16, 02:08:05,VALID,918.425,VALID,0,VALID,95.4223,VALID,0,VALID,19.9203,VALID,107,VALID,0,
2012-10-16, 02:09:05,VALID,918.37,VALID,0,VALID,95.4528,VALID,0,VALID,19.9188,VALID,107,VALID,0,
2012-10-16, 02:10:05,VALID,918.357,VALID,0,VALID,95.3994,VALID,0,VALID,19.9593,VALID,107,VALID,0,
2012-10-16, 02:11:05,VALID,918.35,VALID,0,VALID,95.2317,VALID,0,VALID,19.8993,VALID,107,VALID,0,
2012-10-16, 02:12:05,VALID,918.327,VALID,0,VALID,95.2012,VALID,0,VALID,19.9398,VALID,107,VALID,0,
2012-10-16, 02:13:05,VALID,918.297,VALID,0,VALID,95.186,VALID,0,VALID,19.9398,VALID,107,VALID,0,
2012-10-16, 02:14:05,VALID,918.288,VALID,0,VALID,95.1631,VALID,0,VALID,19.9188,VALID,107,VALID,0,
2012-10-16, 02:15:05,VALID,918.236,VALID,0,VALID,95.0869,VALID,0,VALID,19.8993,VALID,107,VALID,0,
2012-10-16, 02:16:05,VALID,918.187,VALID,0,VALID,95.0411,VALID,0.107441,VALID,19.9203,VALID,107,VALID,0,
2012-10-16, 02:17:05,VALID,918.175,VALID,0,VALID,95.0716,VALID,0,VALID,19.9188,VALID,107,VALID,0,
2012-10-16, 02:18:05,VALID,918.195,VALID,0,VALID,95.1174,VALID,0,VALID,19.9188,VALID,107,VALID,0,
2012-10-16, 02:19:05,VALID,918.142,VALID,0,VALID,95.125,VALID,0,VALID,19.9188,VALID,107,VALID,0,
2012-10-16, 02:20:05,VALID,918.143,VALID,0,VALID,95.1402,VALID,0,VALID,19.9188,VALID,107,VALID,0,
2012-10-16, 02:21:05,VALID,918.119,VALID,0,VALID,95.0335,VALID,0,VALID,19.8993,VALID,107,VALID,0,
2012-10-16, 02:22:05,VALID,918.144,VALID,0,VALID,95.0335,VALID,0,VALID,19.9593,VALID,107,VALID,0,
2012-10-16, 02:23:05,VALID,918.153,VALID,0,VALID,94.9649,VALID,0,VALID,19.9383,VALID,107,VALID,0,
2012-10-16, 02:24:05,VALID,918.125,VALID,0,VALID,94.9344,VALID,0,VALID,19.9383,VALID,107,VALID,0,
2012-10-16, 02:25:05,VALID,918.204,VALID,0,VALID,94.9344,VALID,0,VALID,19.9593,VALID,107,VALID,0,
2012-10-16, 02:26:05,VALID,918.205,VALID,0,VALID,95.0106,VALID,0,VALID,19.9383,VALID,107,VALID,0,
2012-10-16, 02:27:05,VALID,918.228,VALID,0,VALID,94.9649,VALID,0,VALID,19.9383,VALID,106,VALID,0,
2012-10-16, 02:28:05,VALID,918.27,VALID,0,VALID,94.881,VALID,0,VALID,19.9188,VALID,107,VALID,0,
2012-10-16, 02:29:05,VALID,918.302,VALID,0,VALID,95.0183,VALID,0,VALID,19.9188,VALID,107,VALID,0,
2012-10-16, 02:30:05,VALID,918.308,VALID,0,VALID,94.9115,VALID,0,VALID,19.9203,VALID,41,VALID,0,
2012-10-16, 02:31:05,VALID,918.337,VALID,0,VALID,94.8505,VALID,0,VALID,19.8618,VALID,41,VALID,0,
2012-10-16, 02:32:05,VALID,918.321,VALID,0,VALID,94.9344,VALID,0,VALID,19.8618,VALID,41,VALID,0,
2012-10-16, 02:33:05,VALID,918.356,VALID,0,VALID,94.9801,VALID,0,VALID,19.8423,VALID,30,VALID,0,
2012-10-16, 02:34:05,VALID,918.343,VALID,0,VALID,95.0106,VALID,0,VALID,19.7838,VALID,32,VALID,0,
2012-10-16, 02:35:05,VALID,918.369,VALID,0,VALID,95.1174,VALID,0,VALID,19.7643,VALID,32,VALID,0,
2012-10-16, 02:36:05,VALID,918.349,VALID,0,VALID,95.2241,VALID,0,VALID,19.7253,VALID,32,VALID,0,
2012-10-16, 02:37:05,VALID,918.362,VALID,0,VALID,95.3994,VALID,0,VALID,19.7058,VALID,36,VALID,0,
2012-10-16, 02:38:05,VALID,918.355,VALID,0,VALID,95.5443,VALID,0,VALID,19.6653,VALID,36,VALID,0,
2012-10-16, 02:39:05,VALID,918.31,VALID,0,VALID,95.6434,VALID,0,VALID,19.6473,VALID,36,VALID,0,
2012-10-16, 02:40:05,VALID,918.289,VALID,0,VALID,95.8111,VALID,0,VALID,19.6278,VALID,36,VALID,0,
2012-10-16, 02:41:05,VALID,918.282,VALID,0,VALID,95.9864,VALID,0,VALID,19.6473,VALID,36,VALID,0,
2012-10-16, 02:42:05,VALID,918.226,VALID,0,VALID,96.055,VALID,0,VALID,19.6668,VALID,36,VALID,0,
2012-10-16, 02:43:05,VALID,918.235,VALID,0,VALID,96.1084,VALID,0,VALID,19.6473,VALID,36,VALID,0,
2012-10-16, 02:44:05,VALID,918.236,VALID,0,VALID,96.1618,VALID,0,VALID,19.6473,VALID,36,VALID,0,
2012-10-16, 02:45:05,VALID,918.205,VALID,0,VALID,96.1846,VALID,0,VALID,19.6668,VALID,36,VALID,0,
2012-10-16, 02:46:05,VALID,918.212,VALID,0,VALID,96.2533,VALID,0,VALID,19.6668,VALID,36,VALID,0,
2012-10-16, 02:47:05,VALID,918.258,VALID,0,VALID,96.2685,VALID,0,VALID,19.6863,VALID,36,VALID,0,
2012-10-16, 02:48:05,VALID,918.256,VALID,0,VALID,96.3295,VALID,0,VALID,19.6863,VALID,36,VALID,0,
2012-10-16, 02:49:05,VALID,918.265,VALID,0,VALID,96.2837,VALID,0,VALID,19.6668,VALID,36,VALID,0,
2012-10-16, 02:50:05,VALID,918.274,VALID,0,VALID,96.2837,VALID,0,VALID,19.6668,VALID,36,VALID,0,
2012-10-16, 02:51:05,VALID,918.287,VALID,0,VALID,96.3142,VALID,0,VALID,19.6473,VALID,36,VALID,0,
2012-10-16, 02:52:05,VALID,918.33,VALID,0,VALID,96.3066,VALID,0,VALID,19.6668,VALID,36,VALID,0,
2012-10-16, 02:53:05,VALID,918.325,VALID,0,VALID,96.2761,VALID,0,VALID,19.6473,VALID,36,VALID,0,
2012-10-16, 02:54:05,VALID,918.367,VALID,0,VALID,96.2761,VALID,0,VALID,19.6473,VALID,36,VALID,0,
2012-10-16, 02:55:05,VALID,918.361,VALID,0,VALID,96.3219,VALID,0,VALID,19.6863,VALID,36,VALID,0,
2012-10-16, 02:56:05,VALID,918.369,VALID,0,VALID,96.3752,VALID,0,VALID,19.7058,VALID,36,VALID,0,
2012-10-16, 02:57:05,VALID,918.372,VALID,0,VALID,96.4133,VALID,0,VALID,19.7448,VALID,36,VALID,0,
2012-10-16, 02:58:05,VALID,918.354,VALID,0,VALID,96.4286,VALID,0,VALID,19.7433,VALID,36,VALID,0,
2012-10-16, 02:59:05,VALID,918.336,VALID,0,VALID,96.3905,VALID,0,VALID,19.7433,VALID,36,VALID,0,
2012-10-16, 03:00:05,VALID,918.335,VALID,0,VALID,96.3295,VALID,0,VALID,19.7658,VALID,36,VALID,0,
2012-10-16, 03:01:05,VALID,918.276,VALID,0,VALID,96.2914,VALID,0,VALID,19.7643,VALID,36,VALID,0,
2012-10-16, 03:02:05,VALID,918.236,VALID,0,VALID,96.1846,VALID,0,VALID,19.7058,VALID,36,VALID,0,
2012-10-16, 03:03:05,VALID,918.201,VALID,0,VALID,96.2151,VALID,0,VALID,19.6653,VALID,36,VALID,0,
2012-10-16, 03:04:05,VALID,918.19,VALID,0,VALID,96.1694,VALID,0,VALID,19.6668,VALID,36,VALID,0,
2012-10-16, 03:05:05,VALID,918.161,VALID,0,VALID,96.1618,VALID,0,VALID,19.6083,VALID,36,VALID,0,
2012-10-16, 03:06:05,VALID,918.166,VALID,0,VALID,96.1923,VALID,0,VALID,19.6083,VALID,36,VALID,0,
2012-10-16, 03:07:05,VALID,918.19,VALID,0,VALID,96.177,VALID,0,VALID,19.5888,VALID,36,VALID,0,
2012-10-16, 03:08:05,VALID,918.198,VALID,0,VALID,96.1694,VALID,0,VALID,19.5693,VALID,36,VALID,0,
2012-10-16, 03:09:05,VALID,918.159,VALID,0,VALID,96.1389,VALID,0,VALID,19.5888,VALID,36,VALID,0,
2012-10-16, 03:10:05,VALID,918.226,VALID,0,VALID,96.1465,VALID,0,VALID,19.6083,VALID,36,VALID,0,
2012-10-16, 03:11:05,VALID,918.211,VALID,0,VALID,96.0855,VALID,0,VALID,19.6278,VALID,36,VALID,0,
2012-10-16, 03:12:05,VALID,918.216,VALID,0,VALID,96.0855,VALID,0,VALID,19.6068,VALID,36,VALID,0,
2012-10-16, 03:13:05,VALID,918.21,VALID,0,VALID,96.0932,VALID,0,VALID,19.5873,VALID,36,VALID,0,
2012-10-16, 03:14:05,VALID,918.216,VALID,0,VALID,96.0474,VALID,0,VALID,19.5888,VALID,36,VALID,0,
2012-10-16, 03:15:05,VALID,918.171,VALID,0,VALID,96.0474,VALID,0,VALID,19.5678,VALID,36,VALID,0,
2012-10-16, 03:16:05,VALID,918.159,VALID,0,VALID,96.0398,VALID,0,VALID,19.5678,VALID,36,VALID,0,
2012-10-16, 03:17:05,VALID,918.133,VALID,0,VALID,96.055,VALID,0,VALID,19.5693,VALID,98,VALID,0,
2012-10-16, 03:18:05,VALID,918.148,VALID,0,VALID,96.1008,VALID,0,VALID,19.5483,VALID,102,VALID,0,
2012-10-16, 03:19:05,VALID,918.057,VALID,0,VALID,96.1465,VALID,0,VALID,19.5693,VALID,130,VALID,0,
2012-10-16, 03:20:05,VALID,918.068,VALID,0,VALID,96.177,VALID,0,VALID,19.5483,VALID,130,VALID,0,
2012-10-16, 03:21:05,VALID,918.056,VALID,0,VALID,96.2151,VALID,0,VALID,19.5498,VALID,130,VALID,0,
2012-10-16, 03:22:05,VALID,918.033,VALID,0,VALID,96.2456,VALID,0,VALID,19.5288,VALID,155,VALID,0,
2012-10-16, 03:23:05,VALID,918.034,VALID,0,VALID,96.3066,VALID,0,VALID,19.5498,VALID,155,VALID,0,
2012-10-16, 03:24:05,VALID,918.07,VALID,0,VALID,96.3219,VALID,0,VALID,19.5303,VALID,155,VALID,0,
2012-10-16, 03:25:05,VALID,918.033,VALID,0,VALID,96.3829,VALID,0,VALID,19.5108,VALID,155,VALID,0,
2012-10-16, 03:26:04,VALID,918.059,VALID,0,VALID,96.421,VALID,0,VALID,19.4898,VALID,154,VALID,0,
2012-10-16, 03:27:04,VALID,918.047,VALID,0,VALID,96.4286,VALID,0,VALID,19.4703,VALID,162,VALID,0,
2012-10-16, 03:28:04,VALID,917.997,VALID,0,VALID,96.4667,VALID,0,VALID,19.4913,VALID,171,VALID,0,
2012-10-16, 03:29:04,VALID,918.017,VALID,0,VALID,96.5048,VALID,0,VALID,19.4718,VALID,163,VALID,0,
2012-10-16, 03:30:04,VALID,918.014,VALID,0,VALID,96.5353,VALID,0,VALID,19.4718,VALID,167,VALID,0,
2012-10-16, 03:31:04,VALID,918.01,VALID,0,VALID,96.5811,VALID,0,VALID,19.4913,VALID,167,VALID,0,
2012-10-16, 03:32:04,VALID,918.07,VALID,0,VALID,96.5887,VALID,0,VALID,19.4718,VALID,167,VALID,0,
2012-10-16, 03:33:04,VALID,918.04,VALID,0,VALID,96.6115,VALID,0,VALID,19.4913,VALID,167,VALID,0,
2012-10-16, 03:34:04,VALID,918.059,VALID,0,VALID,96.6497,VALID,0,VALID,19.4703,VALID,167,VALID,0,
2012-10-16, 03:35:04,VALID,918.041,VALID,0,VALID,96.6878,VALID,0,VALID,19.4913,VALID,167,VALID,0,
2012-10-16, 03:36:04,VALID,918.067,VALID,0,VALID,96.7107,VALID,0,VALID,19.4913,VALID,167,VALID,0,
2012-10-16, 03:37:04,VALID,918.048,VALID,0,VALID,96.7488,VALID,0,VALID,19.4508,VALID,167,VALID,0,
2012-10-16, 03:38:04,VALID,918.085,VALID,0,VALID,96.764,VALID,0,VALID,19.4898,VALID,167,VALID,0,
2012-10-16, 03:39:04,VALID,918.051,VALID,0,VALID,96.7716,VALID,0,VALID,19.4703,VALID,175,VALID,0,
2012-10-16, 03:40:04,VALID,918.065,VALID,0,VALID,96.7869,VALID,0,VALID,19.4703,VALID,175,VALID,0,
2012-10-16, 03:41:04,VALID,918.018,VALID,0,VALID,96.7945,VALID,0,VALID,19.5108,VALID,175,VALID,0,
2012-10-16, 03:42:04,VALID,918.036,VALID,0,VALID,96.825,VALID,0,VALID,19.4913,VALID,175,VALID,0,
2012-10-16, 03:43:04,VALID,917.994,VALID,0,VALID,96.8403,VALID,0,VALID,19.4913,VALID,175,VALID,0,
2012-10-16, 03:44:04,VALID,918.022,VALID,0,VALID,96.8555,VALID,0,VALID,19.5108,VALID,175,VALID,0,
2012-10-16, 03:45:04,VALID,917.978,VALID,0,VALID,96.8707,VALID,0,VALID,19.4913,VALID,175,VALID,0,
2012-10-16, 03:46:04,VALID,917.942,VALID,0,VALID,96.8784,VALID,0,VALID,19.4913,VALID,175,VALID,0,
2012-10-16, 03:47:04,VALID,917.951,VALID,0,VALID,96.8784,VALID,0,VALID,19.4718,VALID,175,VALID,0,
2012-10-16, 03:48:04,VALID,917.939,VALID,0,VALID,96.8631,VALID,0,VALID,19.4508,VALID,175,VALID,0,
2012-10-16, 03:49:04,VALID,917.918,VALID,0,VALID,96.8936,VALID,0,VALID,19.4703,VALID,175,VALID,0,
2012-10-16, 03:50:04,VALID,917.935,VALID,0,VALID,96.886,VALID,0,VALID,19.4718,VALID,175,VALID,0,
2012-10-16, 03:51:04,VALID,917.906,VALID,0,VALID,96.9089,VALID,0,VALID,19.4913,VALID,175,VALID,0,
2012-10-16, 03:52:04,VALID,917.899,VALID,0,VALID,96.8936,VALID,0,VALID,19.4718,VALID,175,VALID,0,
2012-10-16, 03:53:04,VALID,917.855,VALID,0,VALID,96.8936,VALID,0,VALID,19.4718,VALID,175,VALID,0,
2012-10-16, 03:54:04,VALID,917.873,VALID,0,VALID,96.9012,VALID,0,VALID,19.4703,VALID,175,VALID,0,
2012-10-16, 03:55:04,VALID,917.871,VALID,0,VALID,96.9089,VALID,0,VALID,19.5108,VALID,175,VALID,0,
2012-10-16, 03:56:04,VALID,917.865,VALID,0,VALID,96.9165,VALID,0,VALID,19.4703,VALID,174,VALID,0,
2012-10-16, 03:57:04,VALID,917.857,VALID,0,VALID,96.8936,VALID,0,VALID,19.4313,VALID,174,VALID,0,
2012-10-16, 03:58:04,VALID,917.824,VALID,0,VALID,96.886,VALID,0,VALID,19.4523,VALID,25,VALID,0,
2012-10-16, 03:59:04,VALID,917.839,VALID,0,VALID,96.9012,VALID,0,VALID,19.4313,VALID,25,VALID,0,
2012-10-16, 04:00:04,VALID,917.802,VALID,0,VALID,96.9089,VALID,0,VALID,19.4718,VALID,25,VALID,0,